Dyersburg, TN

10:25 AM CST on December 14, 2019 (GMT -0600)
Dyersburg Municipal

Weather History for KDYR - October, 2019

Change the Weather History Date:

Saturday, October 19, 2019

  Actual Average Record
Temperature  
Mean Temperature 58 °F -  
Max Temperature 73 °F 68 °F 89 °F (2005)
Min Temperature 42 °F 47 °F 35 °F (1996)
Degree Days  
Heating Degree Days 8    
Growing Degree Days 8 (Base 50)    
Moisture  
Dew Point 50 °F    
Average Humidity 87    
Maximum Humidity 100    
Minimum Humidity 46    
Precipitation  
Precipitation 0.00 in - - ()
Sea Level Pressure  
Sea Level Pressure 29.86 in    
Wind  
Wind Speed 2 mph ()    
Max Wind Speed 8 mph    
Max Gust Speed -    
Visibility 6.1 miles    
Events Fog , Rain    
Averages and records for this station are not official NWS values.
T = Trace of Precipitation, MM = Missing Value Source: Averaged Metar Reports

Daily Weather History Graph

Daily Weather History Graph

Search for Another Location

Airport or City:

Astronomy

Oct. 19, 2019 Rise Set
Actual Time 7:07 AM CDT 6:16 PM CDT
Civil Twilight 6:41 AM CDT 6:42 PM CDT
Nautical Twilight 6:11 AM CDT 7:12 PM CDT
Astronomical Twilight 5:42 AM CDT 7:42 PM CDT
Moon 10:33 PM CDT (10/19) 12:32 PM CDT (10/19)
Length of Visible Light 12h 00m
Length of Day
11h 09m
Waning Gibbous, 69% of the Moon is Illuminated
Oct 19
Waning Gibbous
Oct 21
Last Quarter
Oct 27
New
Nov 4
First Quarter
Nov 12
Full

Hourly Weather History & Observations

Time (CDT) Temp. Windchill Dew Point Humidity Pressure Visibility Wind Dir Wind Speed Gust Speed Precip Events Conditions
12:20 AM 46.4 °F - 44.6 °F 93% 29.88 in 1.0 mi Calm Calm - 0.00 in Rain Light Rain
12:24 AM 46.4 °F - 44.6 °F 93% 29.87 in 3.0 mi Calm Calm - 0.00 in Rain Light Rain
12:56 AM 46.9 °F - 45.0 °F 93% 29.90 in 9.0 mi Calm Calm - 0.00 in   Clear
1:21 AM 46.4 °F - 44.6 °F 93% 29.87 in 1.5 mi Calm Calm - N/A   Clear
1:23 AM 46.4 °F - 44.6 °F 93% 29.87 in 0.8 mi Calm Calm - N/A   Clear
1:32 AM 46.4 °F - 44.6 °F 93% 29.88 in 1.2 mi Calm Calm - N/A   Clear
1:35 AM 44.6 °F - 44.6 °F 100% 29.88 in 3.0 mi Calm Calm - N/A   Clear
1:56 AM 45.0 °F 43.5 °F 44.1 °F 97% 29.89 in 3.0 mi East 3.5 mph - N/A   Clear
1:58 AM 44.6 °F 43.1 °F 44.6 °F 100% 29.87 in 1.5 mi East 3.5 mph - 0.00 in Rain Light Rain
2:00 AM 44.6 °F 43.1 °F 44.6 °F 100% 29.87 in 0.8 mi East 3.5 mph - 0.00 in Rain Light Rain
2:08 AM 46.4 °F - 44.6 °F 93% 29.87 in 0.5 mi Calm Calm - 0.00 in Fog , Rain Light Rain
2:14 AM 46.4 °F 45.2 °F 44.6 °F 93% 29.87 in 1.0 mi East 3.5 mph - 0.00 in Rain Light Rain
2:27 AM 46.4 °F - 44.6 °F 93% 29.87 in 0.5 mi Calm Calm - 0.00 in Fog , Rain Light Rain
2:35 AM 48.2 °F - 44.6 °F 87% 29.87 in 1.0 mi Calm Calm - 0.00 in Rain Light Rain
2:39 AM 48.2 °F - 44.6 °F 87% 29.87 in 2.0 mi Calm Calm - 0.00 in Rain Light Rain
2:47 AM 48.2 °F - 44.6 °F 87% 29.87 in 6.0 mi Calm Calm - 0.00 in   Clear
2:56 AM 46.9 °F - 44.1 °F 90% 29.89 in 9.0 mi Calm Calm - 0.00 in   Clear
3:56 AM 43.0 °F - 42.1 °F 97% 29.88 in 10.0 mi Calm Calm - N/A   Clear
4:56 AM 44.1 °F - 43.0 °F 96% 29.88 in 10.0 mi Calm Calm - N/A   Clear
5:56 AM 43.0 °F 39.5 °F 42.1 °F 97% 29.88 in 10.0 mi East 5.8 mph - N/A   Clear
6:56 AM 42.1 °F 39.2 °F 42.1 °F 100% 29.89 in 10.0 mi East 4.6 mph - N/A   Clear
7:56 AM 45.0 °F - 44.1 °F 97% 29.90 in 10.0 mi Calm Calm - N/A   Clear
8:56 AM 51.1 °F - 46.9 °F 86% 29.92 in 10.0 mi ENE 3.5 mph - N/A   Clear
9:56 AM 57.9 °F - 48.9 °F 72% 29.92 in 10.0 mi SSE 4.6 mph - N/A   Clear
10:56 AM 63.0 °F - 51.1 °F 65% 29.89 in 10.0 mi Variable 5.8 mph - N/A   Clear
11:56 AM 66.9 °F - 52.0 °F 59% 29.87 in 10.0 mi SSE 8.1 mph - N/A   Clear
12:56 PM 70.0 °F - 52.0 °F 53% 29.85 in 10.0 mi Variable 3.5 mph - N/A   Clear
1:56 PM 72.0 °F - 52.0 °F 49% 29.81 in 10.0 mi SSE 6.9 mph - N/A   Clear
2:56 PM 73.9 °F - 52.0 °F 46% 29.79 in 10.0 mi SSW 6.9 mph - N/A   Clear
3:56 PM 73.9 °F - 53.1 °F 48% 29.78 in 10.0 mi SE 6.9 mph - N/A   Clear
4:56 PM 73.0 °F - 53.1 °F 49% 29.78 in 10.0 mi Calm Calm - N/A   Clear
5:56 PM 66.0 °F - 57.0 °F 73% 29.78 in 10.0 mi WSW 3.5 mph - N/A   Clear
6:56 PM 62.1 °F - 55.0 °F 78% 29.79 in 10.0 mi Calm Calm - N/A   Clear
7:56 PM 63.0 °F - 60.1 °F 90% 29.81 in 10.0 mi SE 6.9 mph - N/A   Clear
8:56 PM 61.0 °F - 59.0 °F 93% 29.83 in 10.0 mi SE 3.5 mph - N/A   Clear
9:56 PM 57.9 °F - 57.9 °F 100% 29.83 in 10.0 mi SE 4.6 mph - N/A   Clear
10:17 PM 59.0 °F - 59.0 °F 100% 29.83 in 10.0 mi SSE 5.8 mph - N/A   Scattered Clouds
10:26 PM 59.0 °F - 59.0 °F 100% 29.83 in 7.0 mi South 4.6 mph - N/A   Mostly Cloudy
10:34 PM 59.0 °F - 59.0 °F 100% 29.83 in 4.0 mi Variable 5.8 mph - N/A   Mostly Cloudy
10:41 PM 59.0 °F - 59.0 °F 100% 29.83 in 1.8 mi SSE 4.6 mph - N/A   Overcast
10:56 PM 59.0 °F - 59.0 °F 100% 29.85 in 2.5 mi South 3.5 mph - N/A   Overcast
11:14 PM 59.0 °F - 59.0 °F 100% 29.83 in 1.2 mi SSE 6.9 mph - N/A   Overcast
11:56 PM 60.1 °F - 60.1 °F 100% 29.84 in 1.5 mi SSE 3.5 mph - N/A   Overcast